This demonstration page uses our WeatherBlox Daily Observations layout. Learn more.

Left ArrowRight Arrow

39.01783, -85.05884

Hourly Observations for December 16, 2017

Temp ( °F °C ) Dew Point ( °F °C ) Humidity (%) Winds ( mph kmh ) Pressure ( in mb ) Visibility ( mi km ) Precip ( " mm )
12:52 am 00:52 Cloudy 32 0 24 -4.4 73 73 SSW 9 15 30.10 1019 10 16 0.00 0.00
1:52 am 01:52 Cloudy 32 0 24 -4.4 73 73 SSW 9 15 30.09 1019 10 16 0.00 0.00
2:52 am 02:52 Partly Cloudy 31 -0.6 24 -4.4 76 76 S 9 15 30.10 1019 10 16 0.00 0.00
3:52 am 03:52 Cloudy 32 0 25 -3.9 75 75 SSW 8 13 30.10 1019 10 16 0.00 0.00
4:52 am 04:52 Cloudy 33 0.6 25 -3.9 72 72 SSW 9 15 30.07 1018 10 16 0.00 0.00
5:52 am 05:52 Mostly Cloudy 34 1.1 26 -3.3 73 73 SSW 10 17 30.08 1019 10 16 0.00 0.00
6:52 am 06:52 Partly Cloudy 32 0 25 -3.9 75 75 SSW 9 15 30.09 1019 10 16 0.00 0.00
7:52 am 07:52 Mostly Sunny 32 0 25 -3.9 75 75 SSW 13 20 30.09 1019 10 16 0.00 0.00
8:52 am 08:52 Sunny 33 0.6 26 -3.3 75 75 SSW 14 22 30.07 1018 10 16 0.00 0.00
9:52 am 09:52 Sunny 36 2.2 27 -2.8 70 70 SSW 10 17 30.10 1019 10 16 0.00 0.00
10:52 am 10:52 Sunny 40 4.4 28 -2.2 63 63 SW 13 20 30.10 1019 10 16 0.00 0.00
11:52 am 11:52 Sunny 44 6.7 29 -1.7 55 55 SSW 18 30 30.09 1019 10 16 0.00 0.00
12:52 pm 12:52 Sunny 47 8.3 29 -1.7 50 50 SW 20 31 30.07 1018 10 16 0.00 0.00
1:52 pm 13:52 Sunny 49 9.4 29 -1.7 46 46 SW 14 22 30.06 1018 10 16 0.00 0.00
2:52 pm 14:52 Sunny 49 9.4 28 -2.2 44 44 SW 15 24 30.05 1018 10 16 0.00 0.00
3:52 pm 15:52 Sunny 50 10 27 -2.8 41 41 SW 12 19 30.05 1018 10 16 0.00 0.00
4:52 pm 16:52 Mostly Sunny 48 8.9 27 -2.8 44 44 SSW 12 19 30.06 1018 10 16 0.00 0.00
5:52 pm 17:52 Mostly Clear 45 7.2 28 -2.2 52 52 SSW 10 17 30.08 1019 10 16 0.00 0.00
6:52 pm 18:52 Mostly Clear 44 6.7 29 -1.7 55 55 SSW 12 19 30.09 1019 10 16 0.00 0.00
7:52 pm 19:52 Mostly Clear 43 6.1 29 -1.7 58 58 SSW 10 17 30.11 1020 10 16 0.00 0.00
8:52 pm 20:52 Mostly Clear 42 5.6 30 -1.1 62 62 SSW 9 15 30.12 1020 10 16 0.00 0.00
9:04 pm 21:04 Mostly Clear 42 5.6 30 -1.1 62 62 SSW 9 15 30.15 1021 10 16 0.00 0.00
9:52 pm 21:52 Mostly Clear 43 6.1 30 -1.1 60 60 SW 13 20 30.13 1020 10 16 0.00 0.00
10:52 pm 22:52 Mostly Clear 42 5.6 30 -1.1 62 62 SW 9 15 30.16 1021 10 16 0.00 0.00
11:52 pm 23:52 Mostly Clear 40 4.4 30 -1.1 68 68 SSW 7 11 30.18 1022 10 16 0.00 0.00

Powered by AerisWeather